Location: Unspecified
(41.4057°N, 2.1753°E)
Time: 11:54:39
(UTC+02:00)

ISS - Visible Passes

Search period start: 01 May 2016 00:00
Search period end: 11 May 2016 00:00
Orbit: 402 x 405 km, 51.6° (Epoch: 01 May)

Date Brightness Start Highest point End Pass type
(mag) Time Alt. Az. Time Alt. Az. Time Alt. Az.
06 May -0.5 06:06:58 10° SSE 06:08:07 11° SE 06:09:17 10° ESE visible
08 May -1.6 05:56:26 10° SSW 05:59:13 27° SE 06:02:02 10° ENE visible
09 May -0.8 05:05:18 11° SSE 05:06:53 14° SE 05:08:43 10° E visible
10 May -3.1 05:47:32 12° SW 05:50:26 66° SE 05:53:40 10° ENE visible
